Regional Weather Roundup
Issued by NWS

Home | Current Version | Previous Version | Text Only | Print | Product List | Glossary On
Versions: 1 2 3 4 5 6 7 8 9 10 11 12 13 14 15 16 17 18 19 20 21 22 23 24 25 26 27 28 29 30 31 32 33 34 35 36 37 38 39 40 41 42 43 44 45 46 47 48 49 50
000
ASUS43 KTOP 301608
RWRKS

WEATHER ROUNDUP FOR KANSAS
NATIONAL WEATHER SERVICE GOODLAND KS
1100 AM CDT SUN AUG 30 2015

NOTE:  "FAIR" INDICATES FEW OR NO CLOUDS BELOW 12,000 FEET WITH NO
SIGNIFICANT WEATHER AND/OR OBSTRUCTIONS TO VISIBILITY.

KSZ001>006-013>018-027>032-041>047-301700-
NORTHWEST KANSAS

CITY           SKY/WX    TMP DP  RH WIND       PRES   REMARKS
GOODLAND       SUNNY     80  51  36 S17       30.08F
HAYS           SUNNY     72  55  56 SE5       30.07R
HILL CITY      SUNNY     75  59  57 VRB3      30.05S
RUSSELL        SUNNY     69  63  81 S7        30.07R
$$

KSZ061>065-074>080-084>089-301700-
SOUTHWEST KANSAS

CITY           SKY/WX    TMP DP  RH WIND       PRES   REMARKS
DODGE CITY     SUNNY     72  59  63 VRB3      30.09R
ELKHART          N/A     79  61  54 S8          N/A
GARDEN CITY    SUNNY     78  56  46 S8        30.09R
GREAT BEND     MOSUNNY   66  61  82 S7        30.08S
LIBERAL        SUNNY     79  57  47 S5        30.11R
PRATT          SUNNY     70  61  73 CALM      30.10S
$$

KSZ066>073-081>083-090>101-301700-
SOUTHEAST KANSAS

CITY           SKY/WX    TMP DP  RH WIND       PRES   REMARKS
CHANUTE        CLOUDY    73  70  90 NE3       30.06R
COFFEYVILLE    CLOUDY    74  70  87 NE5       30.03S
HUTCHINSON     CLOUDY    67  64  90 CALM      30.10R
MEDICINE LODGE   N/A     73  62  68 VRB3      30.08R
NEWTON         CLOUDY    68  63  83 NW3       30.11R
PARSONS        CLOUDY    76  71  85 VRB3      30.05S
WICHITA INTL   CLOUDY    72  65  78 N5        30.08R
WICHITA JABRA  PTSUNNY   72  68  87 N5        30.07S
WICHITA MCCONL SUNNY     73  64  74 N3        30.07S
$$

KSZ007>012-019>026-033>040-048>060-102>105-301700-
NORTHEAST KANSAS

CITY           SKY/WX    TMP DP  RH WIND       PRES   REMARKS
CONCORDIA      CLOUDY    65  64  97 S5        30.10R
EMPORIA        CLOUDY    71  67  87 CALM      30.07R
LAWRENCE       CLOUDY    71  68  90 CALM      30.07R FOG
MANHATTAN      CLOUDY    68  65  90 CALM      30.09R
MARYSVILLE     CLOUDY   N/A N/A N/A SE3       30.09S HAZE
OLATHE IND     CLOUDY    73  69  87 VRB5      30.07S
OLATHE EXE     PTSUNNY   72  69  90 E6        30.06S
SALINA         CLOUDY    68  63  84 SE5       30.10R
TOPEKA BILLARD CLOUDY    70  68  93 CALM      30.08R FOG
TOPEKA FORBES  CLOUDY    70  67  90 CALM      30.08R FOG
$$



USA.gov is the U.S. government's official web portal to all federal, state and local government web resources and services.